Time,TemperatureF,DewpointF,PressureIn,WindDirection,WindDirectionDegrees,WindSpeedMPH,WindSpeedGustMPH,Humidity,HourlyPrecipIn,Conditions,Clouds,dailyrainin,SoftwareType,DateUTC
2013-05-08 00:00:00,53.2,53.2,30.15,SE,146,1.0,1.0,100,0.00,,,0.00,Wunderground v.1.15,2013-05-08 04:00:00,
2013-05-08 00:10:00,53.1,53.1,30.15,SSW,211,0.0,0.0,100,0.00,,,0.00,Wunderground v.1.15,2013-05-08 04:10:00,
2013-05-08 00:20:00,52.8,52.8,30.15,South,174,1.0,1.0,100,0.00,,,0.00,Wunderground v.1.15,2013-05-08 04:20:00,
2013-05-08 00:30:00,52.9,52.9,30.15,SW,231,0.0,0.0,100,0.00,,,0.00,Wunderground v.1.15,2013-05-08 04:30:00,
2013-05-08 00:40:00,53.1,53.1,30.15,SW,226,0.0,0.0,100,0.00,,,0.00,Wunderground v.1.15,2013-05-08 04:40:00,
2013-05-08 00:50:00,52.9,52.9,30.15,SW,217,0.0,0.0,100,0.00,,,0.00,Wunderground v.1.15,2013-05-08 04:50:00,
2013-05-08 01:00:00,53.1,53.1,30.15,East,100,1.0,2.0,100,0.00,,,0.00,Wunderground v.1.15,2013-05-08 05:00:00,
2013-05-08 01:10:00,53.1,53.1,30.15,ENE,76,1.0,1.0,100,0.00,,,0.00,Wunderground v.1.15,2013-05-08 05:10:00,
2013-05-08 01:20:00,53.2,53.2,30.14,South,171,1.0,1.0,100,0.00,,,0.00,Wunderground v.1.15,2013-05-08 05:20:00,
2013-05-08 01:30:00,53.2,53.2,30.14,SSE,158,1.0,1.0,100,0.00,,,0.00,Wunderground v.1.15,2013-05-08 05:30:00,
2013-05-08 01:40:00,53.1,53.1,30.13,South,188,2.0,4.0,100,0.00,,,0.00,Wunderground v.1.15,2013-05-08 05:40:00,
2013-05-08 01:50:00,53.1,53.1,30.13,SW,224,2.0,2.0,100,0.00,,,0.00,Wunderground v.1.15,2013-05-08 05:50:00,
2013-05-08 02:00:00,53.1,53.1,30.13,SE,130,2.0,2.0,100,0.00,,,0.00,Wunderground v.1.15,2013-05-08 06:00:00,
2013-05-08 02:10:00,53.1,52.8,30.13,West,278,1.0,1.0,99,0.00,,,0.00,Wunderground v.1.15,2013-05-08 06:10:00,
2013-05-08 02:20:00,52.8,52.5,30.13,SE,126,1.0,2.0,99,0.00,,,0.00,Wunderground v.1.15,2013-05-08 06:20:00,
2013-05-08 02:30:00,52.8,52.5,30.13,SW,214,1.0,2.0,99,0.00,,,0.00,Wunderground v.1.15,2013-05-08 06:30:00,
2013-05-08 02:40:00,52.9,52.6,30.13,SW,217,1.0,1.0,99,0.00,,,0.00,Wunderground v.1.15,2013-05-08 06:40:00,
2013-05-08 02:50:00,52.9,52.6,30.13,WSW,248,1.0,1.0,99,0.00,,,0.00,Wunderground v.1.15,2013-05-08 06:50:00,
2013-05-08 03:00:00,53.2,52.9,30.13,SE,125,1.0,1.0,99,0.00,,,0.00,Wunderground v.1.15,2013-05-08 07:00:00,
2013-05-08 03:10:00,53.3,52.8,30.13,SSW,194,2.0,2.0,98,0.00,,,0.00,Wunderground v.1.15,2013-05-08 07:10:00,
2013-05-08 03:20:00,53.5,52.9,30.13,WSW,240,2.0,2.0,98,0.00,,,0.00,Wunderground v.1.15,2013-05-08 07:20:00,
2013-05-08 03:30:00,53.5,52.9,30.13,SSW,206,1.0,1.0,98,0.00,,,0.00,Wunderground v.1.15,2013-05-08 07:30:00,
2013-05-08 03:40:00,53.5,52.9,30.13,SW,223,1.0,1.0,98,0.00,,,0.00,Wunderground v.1.15,2013-05-08 07:40:00,
2013-05-08 03:50:00,53.5,52.7,30.13,WSW,256,3.0,3.0,97,0.00,,,0.00,Wunderground v.1.15,2013-05-08 07:50:00,
2013-05-08 04:00:00,53.3,52.5,30.13,East,83,2.0,5.0,97,0.00,,,0.00,Wunderground v.1.15,2013-05-08 08:00:00,
2013-05-08 04:10:00,53.5,52.7,30.13,SSE,164,3.0,5.0,97,0.00,,,0.00,Wunderground v.1.15,2013-05-08 08:10:00,
2013-05-08 04:20:00,53.5,52.7,30.14,SSE,159,3.0,3.0,97,0.00,,,0.00,Wunderground v.1.15,2013-05-08 08:20:00,
2013-05-08 04:30:00,53.5,52.7,30.14,ESE,119,1.0,2.0,97,0.00,,,0.00,Wunderground v.1.15,2013-05-08 08:30:00,
2013-05-08 04:40:00,53.3,52.5,30.14,East,95,0.0,3.0,97,0.00,,,0.00,Wunderground v.1.15,2013-05-08 08:40:00,
2013-05-08 04:50:00,53.5,52.7,30.14,ESE,123,1.0,1.0,97,0.00,,,0.00,Wunderground v.1.15,2013-05-08 08:50:00,
2013-05-08 05:00:00,53.3,52.5,30.15,ESE,123,1.0,1.0,97,0.00,,,0.00,Wunderground v.1.15,2013-05-08 09:00:00,
2013-05-08 05:10:00,53.5,52.7,30.15,ESE,120,1.0,1.0,97,0.00,,,0.00,Wunderground v.1.15,2013-05-08 09:10:00,
2013-05-08 05:20:00,53.3,52.5,30.15,ESE,120,1.0,1.0,97,0.00,,,0.00,Wunderground v.1.15,2013-05-08 09:20:00,
2013-05-08 05:30:00,53.3,52.5,30.16,ESE,106,1.0,1.0,97,0.00,,,0.00,Wunderground v.1.15,2013-05-08 09:30:00,
2013-05-08 05:40:00,53.6,52.8,30.16,ESE,107,0.0,0.0,97,0.00,,,0.00,Wunderground v.1.15,2013-05-08 09:40:00,
2013-05-08 05:50:00,53.9,53.1,30.16,ESE,107,1.0,2.0,97,0.00,,,0.00,Wunderground v.1.15,2013-05-08 09:50:00,
2013-05-08 06:00:00,53.9,52.8,30.16,ESE,107,1.0,1.0,96,0.00,,,0.00,Wunderground v.1.15,2013-05-08 10:00:00,
2013-05-08 06:10:00,54.5,53.4,30.17,ESE,107,0.0,0.0,96,0.00,,,0.00,Wunderground v.1.15,2013-05-08 10:10:00,
2013-05-08 06:20:00,54.4,53.0,30.17,ESE,107,0.0,0.0,95,0.00,,,0.00,Wunderground v.1.15,2013-05-08 10:20:00,
2013-05-08 06:30:00,55.0,53.9,30.17,ESE,107,0.0,0.0,96,0.00,,,0.00,Wunderground v.1.15,2013-05-08 10:30:00,
2013-05-08 06:40:00,56.2,54.5,30.17,NE,41,0.0,0.0,94,0.00,,,0.00,Wunderground v.1.15,2013-05-08 10:40:00,
2013-05-08 06:50:00,57.3,54.7,30.18,East,81,0.0,0.0,91,0.00,,,0.00,Wunderground v.1.15,2013-05-08 10:50:00,
2013-05-08 07:00:00,58.1,54.6,30.18,South,169,2.0,2.0,88,0.00,,,0.00,Wunderground v.1.15,2013-05-08 11:00:00,
2013-05-08 07:10:00,59.0,54.8,30.18,SSE,156,1.0,1.0,86,0.00,,,0.00,Wunderground v.1.15,2013-05-08 11:10:00,
2013-05-08 07:20:00,59.8,55.0,30.19,SSE,155,1.0,4.0,84,0.00,,,0.00,Wunderground v.1.15,2013-05-08 11:20:00,
2013-05-08 07:30:00,60.1,54.6,30.19,SE,137,2.0,2.0,82,0.00,,,0.00,Wunderground v.1.15,2013-05-08 11:30:00,
2013-05-08 07:40:00,61.2,55.3,30.20,SSW,212,1.0,1.0,81,0.00,,,0.00,Wunderground v.1.15,2013-05-08 11:40:00,
2013-05-08 07:50:00,62.4,55.4,30.20,South,174,0.0,0.0,78,0.00,,,0.00,Wunderground v.1.15,2013-05-08 11:50:00,
2013-05-08 08:00:00,63.4,55.3,30.20,SSE,149,1.0,1.0,75,0.00,,,0.00,Wunderground v.1.15,2013-05-08 12:00:00,
2013-05-08 08:10:00,64.0,55.2,30.20,South,173,1.0,1.0,73,0.00,,,0.00,Wunderground v.1.15,2013-05-08 12:10:00,
2013-05-08 08:20:00,64.5,55.7,30.20,SW,219,1.0,1.0,73,0.00,,,0.00,Wunderground v.1.15,2013-05-08 12:20:00,
2013-05-08 08:30:00,65.0,55.8,30.21,WNW,282,1.0,1.0,72,0.00,,,0.00,Wunderground v.1.15,2013-05-08 12:30:00,
2013-05-08 08:40:00,65.0,55.8,30.21,SSW,204,1.0,1.0,72,0.00,,,0.00,Wunderground v.1.15,2013-05-08 12:40:00,
2013-05-08 08:50:00,66.0,57.5,30.21,SSW,208,1.0,3.0,74,0.00,,,0.00,Wunderground v.1.15,2013-05-08 12:50:00,
2013-05-08 09:00:00,66.4,55.5,30.21,SSE,154,2.0,2.0,68,0.00,,,0.00,Wunderground v.1.15,2013-05-08 13:00:00,
2013-05-08 09:10:00,66.6,54.9,30.21,SSE,161,2.0,2.0,66,0.00,,,0.00,Wunderground v.1.15,2013-05-08 13:10:00,
2013-05-08 09:20:00,66.9,53.9,30.22,SSW,193,3.0,3.0,63,0.00,,,0.00,Wunderground v.1.15,2013-05-08 13:20:00,
2013-05-08 09:30:00,66.9,53.0,30.22,SW,222,4.0,4.0,61,0.00,,,0.00,Wunderground v.1.15,2013-05-08 13:30:00,
2013-05-08 09:40:00,67.8,54.7,30.22,SSW,203,3.0,10.0,63,0.00,,,0.00,Wunderground v.1.15,2013-05-08 13:40:00,
2013-05-08 09:50:00,67.9,54.0,30.22,SW,215,4.0,4.0,61,0.00,,,0.00,Wunderground v.1.15,2013-05-08 13:50:00,
2013-05-08 10:00:00,68.3,53.9,30.22,SW,221,3.0,3.0,60,0.00,,,0.00,Wunderground v.1.15,2013-05-08 14:00:00,
2013-05-08 10:10:00,68.9,55.3,30.23,SSW,208,3.0,5.0,62,0.00,,,0.00,Wunderground v.1.15,2013-05-08 14:10:00,
2013-05-08 10:20:00,69.1,55.5,30.22,SSW,204,3.0,3.0,62,0.00,,,0.00,Wunderground v.1.15,2013-05-08 14:20:00,
2013-05-08 10:30:00,69.4,55.4,30.22,WSW,243,4.0,10.0,61,0.00,,,0.00,Wunderground v.1.15,2013-05-08 14:30:00,
2013-05-08 10:40:00,69.9,57.2,30.22,West,278,4.0,4.0,64,0.00,,,0.00,Wunderground v.1.15,2013-05-08 14:40:00,
2013-05-08 10:50:00,70.9,54.9,30.22,SW,221,3.0,4.0,57,0.00,,,0.00,Wunderground v.1.15,2013-05-08 14:50:00,
2013-05-08 11:00:00,70.3,56.7,30.22,SW,222,4.0,4.0,62,0.00,,,0.00,Wunderground v.1.15,2013-05-08 15:00:00,
2013-05-08 11:10:00,70.1,56.0,30.22,SW,224,5.0,6.0,61,0.00,,,0.00,Wunderground v.1.15,2013-05-08 15:10:00,
2013-05-08 11:20:00,70.6,56.9,30.22,SSW,199,5.0,5.0,62,0.00,,,0.00,Wunderground v.1.15,2013-05-08 15:20:00,
2013-05-08 11:30:00,71.1,55.6,30.22,SW,227,4.0,4.0,58,0.00,,,0.00,Wunderground v.1.15,2013-05-08 15:30:00,
2013-05-08 11:40:00,70.9,55.9,30.22,SW,227,4.0,4.0,59,0.00,,,0.00,Wunderground v.1.15,2013-05-08 15:40:00,
2013-05-08 11:50:00,72.0,55.9,30.22,SW,229,4.0,4.0,57,0.00,,,0.00,Wunderground v.1.15,2013-05-08 15:50:00,
2013-05-08 12:00:00,71.5,54.5,30.22,SSE,148,4.0,7.0,55,0.00,,,0.00,Wunderground v.1.15,2013-05-08 16:00:00,
2013-05-08 12:10:00,71.5,55.0,30.22,SSW,203,4.0,4.0,56,0.00,,,0.00,Wunderground v.1.15,2013-05-08 16:10:00,
2013-05-08 12:20:00,71.1,57.4,30.21,SE,135,4.0,6.0,62,0.00,,,0.00,Wunderground v.1.15,2013-05-08 16:20:00,
2013-05-08 12:30:00,69.4,56.7,30.21,ESE,102,4.0,6.0,64,0.00,,,0.00,Wunderground v.1.15,2013-05-08 16:30:00,
2013-05-08 12:40:00,70.9,59.4,30.21,SE,142,3.0,5.0,67,0.00,,,0.00,Wunderground v.1.15,2013-05-08 16:40:00,
2013-05-08 12:50:00,68.6,57.6,30.22,SE,145,5.0,5.0,68,0.00,,,0.00,Wunderground v.1.15,2013-05-08 16:50:00,
2013-05-08 13:00:00,69.9,57.2,30.22,SSE,155,4.0,4.0,64,0.00,,,0.00,Wunderground v.1.15,2013-05-08 17:00:00,
2013-05-08 13:10:00,71.1,57.4,30.21,South,181,3.0,3.0,62,0.00,,,0.00,Wunderground v.1.15,2013-05-08 17:10:00,
2013-05-08 13:20:00,71.3,57.2,30.21,SW,229,4.0,4.0,61,0.00,,,0.00,Wunderground v.1.15,2013-05-08 17:20:00,
2013-05-08 13:30:00,71.3,56.2,30.21,SE,137,4.0,8.0,59,0.00,,,0.00,Wunderground v.1.15,2013-05-08 17:30:00,
2013-05-08 13:40:00,71.1,57.0,30.21,ESE,121,5.0,6.0,61,0.00,,,0.00,Wunderground v.1.15,2013-05-08 17:40:00,
2013-05-08 13:50:00,71.1,56.0,30.21,SE,136,6.0,6.0,59,0.00,,,0.00,Wunderground v.1.15,2013-05-08 17:50:00,
2013-05-08 14:00:00,72.0,58.3,30.22,SE,139,4.0,5.0,62,0.00,,,0.00,Wunderground v.1.15,2013-05-08 18:00:00,
2013-05-08 14:10:00,70.8,57.6,30.22,East,98,5.0,8.0,63,0.00,,,0.00,Wunderground v.1.15,2013-05-08 18:10:00,
2013-05-08 14:20:00,69.8,57.9,30.21,ESE,115,5.0,6.0,66,0.00,,,0.00,Wunderground v.1.15,2013-05-08 18:20:00,
2013-05-08 14:30:00,70.1,59.0,30.21,SE,146,4.0,8.0,68,0.00,,,0.00,Wunderground v.1.15,2013-05-08 18:30:00,
2013-05-08 14:40:00,69.3,57.9,30.21,ESE,123,7.0,7.0,67,0.00,,,0.00,Wunderground v.1.15,2013-05-08 18:40:00,
2013-05-08 14:50:00,69.4,58.0,30.20,ESE,120,6.0,12.0,67,0.00,,,0.00,Wunderground v.1.15,2013-05-08 18:50:00,
2013-05-08 15:00:00,69.1,57.7,30.20,SSE,149,7.0,9.0,67,0.00,,,0.00,Wunderground v.1.15,2013-05-08 19:00:00,
2013-05-08 15:10:00,69.1,56.8,30.20,East,91,6.0,12.0,65,0.00,,,0.00,Wunderground v.1.15,2013-05-08 19:10:00,
2013-05-08 15:20:00,68.8,57.4,30.19,SE,137,9.0,10.0,67,0.00,,,0.00,Wunderground v.1.15,2013-05-08 19:20:00,
2013-05-08 15:30:00,67.9,56.9,30.19,SE,126,10.0,10.0,68,0.00,,,0.00,Wunderground v.1.15,2013-05-08 19:30:00,
2013-05-08 15:40:00,69.1,57.7,30.20,SSE,147,6.0,12.0,67,0.00,,,0.00,Wunderground v.1.15,2013-05-08 19:40:00,
2013-05-08 15:50:00,67.8,56.9,30.19,SE,143,6.0,6.0,68,0.00,,,0.00,Wunderground v.1.15,2013-05-08 19:50:00,
2013-05-08 16:00:00,66.9,56.8,30.19,SE,141,6.0,6.0,70,0.00,,,0.00,Wunderground v.1.15,2013-05-08 20:00:00,
2013-05-08 16:10:00,67.3,57.6,30.19,ESE,114,5.0,9.0,71,0.00,,,0.00,Wunderground v.1.15,2013-05-08 20:10:00,
2013-05-08 16:20:00,66.3,57.0,30.19,SE,141,7.0,7.0,72,0.00,,,0.00,Wunderground v.1.15,2013-05-08 20:20:00,
2013-05-08 16:30:00,66.6,57.7,30.19,East,90,6.0,6.0,73,0.00,,,0.00,Wunderground v.1.15,2013-05-08 20:30:00,
2013-05-08 16:40:00,66.3,57.4,30.19,ESE,110,7.0,10.0,73,0.00,,,0.00,Wunderground v.1.15,2013-05-08 20:40:00,
2013-05-08 16:50:00,65.8,57.7,30.19,ESE,106,6.0,6.0,75,0.00,,,0.00,Wunderground v.1.15,2013-05-08 20:50:00,
2013-05-08 17:00:00,65.5,57.7,30.19,SSE,153,7.0,7.0,76,0.00,,,0.00,Wunderground v.1.15,2013-05-08 21:00:00,
2013-05-08 17:10:00,65.2,57.4,30.19,SE,135,8.0,8.0,76,0.00,,,0.00,Wunderground v.1.15,2013-05-08 21:10:00,
2013-05-08 17:20:00,65.3,57.2,30.18,SE,124,7.0,7.0,75,0.00,,,0.00,Wunderground v.1.15,2013-05-08 21:20:00,
2013-05-08 17:30:00,65.5,57.7,30.18,ESE,108,7.0,7.0,76,0.00,,,0.00,Wunderground v.1.15,2013-05-08 21:30:00,
2013-05-08 17:40:00,65.0,57.6,30.18,SE,133,7.0,7.0,77,0.00,,,0.00,Wunderground v.1.15,2013-05-08 21:40:00,
2013-05-08 17:50:00,64.2,57.2,30.18,SE,135,7.0,10.0,78,0.00,,,0.00,Wunderground v.1.15,2013-05-08 21:50:00,
2013-05-08 18:00:00,63.7,57.1,30.18,SSE,164,7.0,7.0,79,0.00,,,0.00,Wunderground v.1.15,2013-05-08 22:00:00,
2013-05-08 18:10:00,63.4,57.1,30.18,ESE,109,6.0,6.0,80,0.00,,,0.00,Wunderground v.1.15,2013-05-08 22:10:00,
2013-05-08 18:20:00,63.1,56.8,30.18,SSE,147,5.0,5.0,80,0.00,,,0.00,Wunderground v.1.15,2013-05-08 22:20:00,
2013-05-08 18:30:00,61.8,55.9,30.17,East,91,5.0,6.0,81,0.00,,,0.00,Wunderground v.1.15,2013-05-08 22:30:00,
2013-05-08 18:40:00,60.7,55.5,30.17,East,101,6.0,6.0,83,0.00,,,0.00,Wunderground v.1.15,2013-05-08 22:40:00,
2013-05-08 18:50:00,59.9,55.1,30.17,East,79,3.0,4.0,84,0.00,,,0.00,Wunderground v.1.15,2013-05-08 22:50:00,
2013-05-08 19:00:00,58.9,55.0,30.18,ENE,74,3.0,3.0,87,0.00,,,0.00,Wunderground v.1.15,2013-05-08 23:00:00,
2013-05-08 19:10:00,58.1,54.6,30.18,ENE,63,3.0,3.0,88,0.00,,,0.00,Wunderground v.1.15,2013-05-08 23:10:00,
2013-05-08 19:20:00,57.3,54.7,30.17,East,79,2.0,2.0,91,0.00,,,0.00,Wunderground v.1.15,2013-05-08 23:20:00,
2013-05-08 19:30:00,56.7,54.7,30.17,East,83,2.0,3.0,93,0.00,,,0.00,Wunderground v.1.15,2013-05-08 23:30:00,
2013-05-08 19:40:00,56.5,54.8,30.17,East,82,1.0,1.0,94,0.00,,,0.00,Wunderground v.1.15,2013-05-08 23:40:00,
2013-05-08 19:50:00,56.3,54.9,30.17,East,82,1.0,2.0,95,0.00,,,0.00,Wunderground v.1.15,2013-05-08 23:50:00,
2013-05-08 20:00:00,55.7,54.3,30.17,East,82,2.0,2.0,95,0.00,,,0.00,Wunderground v.1.15,2013-05-09 00:00:00,
2013-05-08 20:10:00,55.9,55.1,30.17,SE,124,2.0,2.0,97,0.00,,,0.00,Wunderground v.1.15,2013-05-09 00:10:00,
2013-05-08 20:20:00,55.3,54.5,30.16,SE,124,0.0,1.0,97,0.00,,,0.00,Wunderground v.1.15,2013-05-09 00:20:00,
2013-05-08 20:30:00,54.2,53.4,30.16,ESE,120,2.0,3.0,97,0.00,,,0.00,Wunderground v.1.15,2013-05-09 00:30:00,
2013-05-08 20:40:00,53.6,53.0,30.16,ESE,120,2.0,2.0,98,0.00,,,0.00,Wunderground v.1.15,2013-05-09 00:40:00,
2013-05-08 20:50:00,53.5,53.2,30.17,ESE,120,1.0,1.0,99,0.00,,,0.00,Wunderground v.1.15,2013-05-09 00:50:00,
2013-05-08 21:00:00,53.5,53.5,30.17,ESE,120,0.0,0.0,100,0.00,,,0.00,Wunderground v.1.15,2013-05-09 01:00:00,
2013-05-08 21:10:00,53.8,53.8,30.17,ESE,120,0.0,0.0,100,0.00,,,0.00,Wunderground v.1.15,2013-05-09 01:10:00,
2013-05-08 21:20:00,53.9,53.9,30.17,ESE,120,0.0,1.0,100,0.00,,,0.00,Wunderground v.1.15,2013-05-09 01:20:00,
2013-05-08 21:30:00,53.9,53.9,30.17,ESE,120,1.0,1.0,100,0.00,,,0.00,Wunderground v.1.15,2013-05-09 01:30:00,
2013-05-08 21:40:00,53.6,53.6,30.17,NE,56,1.0,5.0,100,0.00,,,0.00,Wunderground v.1.15,2013-05-09 01:40:00,
2013-05-08 21:50:00,53.5,53.5,30.16,ENE,77,2.0,2.0,100,0.00,,,0.00,Wunderground v.1.15,2013-05-09 01:50:00,
2013-05-08 22:00:00,53.3,53.3,30.16,East,79,4.0,4.0,100,0.00,,,0.00,Wunderground v.1.15,2013-05-09 02:00:00,
2013-05-08 22:10:00,53.2,53.2,30.16,East,79,3.0,3.0,100,0.00,,,0.00,Wunderground v.1.15,2013-05-09 02:10:00,
2013-05-08 22:20:00,52.9,52.9,30.16,East,100,2.0,2.0,100,0.00,,,0.00,Wunderground v.1.15,2013-05-09 02:20:00,
2013-05-08 22:30:00,52.6,52.6,30.16,East,82,1.0,1.0,100,0.00,,,0.00,Wunderground v.1.15,2013-05-09 02:30:00,
2013-05-08 22:40:00,52.3,52.3,30.16,ENE,58,2.0,2.0,100,0.00,,,0.00,Wunderground v.1.15,2013-05-09 02:40:00,
2013-05-08 22:50:00,52.0,52.0,30.15,NE,56,2.0,2.0,100,0.00,,,0.00,Wunderground v.1.15,2013-05-09 02:50:00,
2013-05-08 23:00:00,52.0,52.0,30.15,NE,56,0.0,0.0,100,0.00,,,0.00,Wunderground v.1.15,2013-05-09 03:00:00,
2013-05-08 23:10:00,52.0,52.0,30.15,NE,56,0.0,0.0,100,0.00,,,0.00,Wunderground v.1.15,2013-05-09 03:10:00,
2013-05-08 23:20:00,52.0,52.0,30.15,NE,56,0.0,0.0,100,0.00,,,0.00,Wunderground v.1.15,2013-05-09 03:20:00,
2013-05-08 23:30:00,51.9,51.9,30.15,NE,56,1.0,1.0,100,0.00,,,0.00,Wunderground v.1.15,2013-05-09 03:30:00,
2013-05-08 23:40:00,52.0,52.0,30.15,NE,56,0.0,0.0,100,0.00,,,0.00,Wunderground v.1.15,2013-05-09 03:40:00,
2013-05-08 23:50:00,52.0,52.0,30.14,NE,56,0.0,0.0,100,0.00,,,0.00,Wunderground v.1.15,2013-05-09 03:50:00,